Regional Weather Roundup
Issued by NWS

Home | Current Version | Previous Version | Graphics & Text | Print | Product List | Glossary Off
Versions: 1 2 3 4 5 6 7 8 9 10 11 12 13 14 15 16 17 18 19 20 21 22 23 24 25 26 27 28 29 30 31 32 33 34 35 36 37 38 39 40 41 42 43 44 45 46 47 48 49 50

000
ASUS43 KDMX 281507
RWRIA

WEATHER ROUNDUP FOR IOWA
NATIONAL WEATHER SERVICE DES MOINES IA
900 AM CST SUN DEC 28 2014

NOTE: "FAIR" INDICATES FEW OR NO CLOUDS BELOW 12,000 FEET WITH NO
SIGNIFICANT WEATHER AND/OR OBSTRUCTIONS TO VISIBILITY.

* - THESE STATIONS ARE NOT NWS STATIONS...THUS NOT UNDER NWS
QUALITY CONTROL.  THEY ALSO DO NOT REPORT WEATHER SUCH
AS PRECIPITATION OR FOG.

IAZ001>003-012>014-020>022-031>034-043>046-281600-
   NORTHWEST IOWA

CITY           SKY/WX    TMP DP  RH WIND       PRES   REMARKS
CARROLL *      CLEAR     16  14  93 W5        30.14R WCI   9
CHEROKEE *     PTCLDY     9   7  92 CALM      30.13R
DENISON *      CLEAR     16  14  93 CALM      30.12R
LE MARS *      CLEAR      5   3  92 CALM      30.14R
ORANGE CITY *  CLEAR     10   9  92 CALM      30.10S
SHELDON *      CLEAR      3   0  85 CALM      30.11R
SIOUX CITY     PTCLDY     7   5  91 CALM      30.15R
SPENCER        CLEAR      6   3  87 SW3       30.12R
STORM LAKE *   CLEAR      9   7  92 CALM      30.12R
$$

IAZ055>058-069>071-079>083-090>094-281600-
   SOUTHWEST IOWA

CITY           SKY/WX    TMP DP  RH WIND       PRES   REMARKS
ATLANTIC *     SUNNY     18  16  93 SW3       30.15R
AUDUBON *      SUNNY     18  10  73 CALM      30.13R
CLARINDA *     SUNNY     19  18  93 CALM      30.20R
COUNCIL BLFS * CLEAR     19  18  93 S7        30.13R WCI  10
CRESTON *      SUNNY     19  18  93 SW8       30.15R WCI   9
HARLAN  *      CLEAR     16  16 100 CALM      30.17R
LAMONI         SUNNY     18  16  92 S10       30.17R WCI   6
RED OAK *      SUNNY     18  16  93 S5        30.17R WCI  11
SHENANDOAH *   SUNNY     21  18  86 SW7       30.19R WCI  13
$$

IAZ047>049-059>061-072>074-084-281600-
   CENTRAL IOWA

CITY           SKY/WX    TMP DP  RH WIND       PRES   REMARKS
AMES           SUNNY     19  15  84 SW5       30.16R WCI  12
ANKENY *       SUNNY     19  16  86 CALM      30.16S
CHARITON *     SUNNY     19  16  86 S7        30.17R WCI  10
DES MOINES     MOSUNNY   19  15  84 S5        30.16R WCI  12
GRINNELL*      SUNNY     19  16  86 S6        30.17S WCI  11
KNOXVILLE *    SUNNY     19  16  86 S7        30.17R WCI  10
MARSHALLTOWN   SUNNY     16  14  92 CALM      30.15R
PELLA *        SUNNY     21  18  86 S7        30.20R WCI  13
PERRY *          N/A     18  16  93 CALM      30.17R
$$

IAZ004>006-015-016-023>025-035-036-281600-
   NORTH CENTRAL IOWA

CITY           SKY/WX    TMP DP  RH WIND       PRES   REMARKS
ALGONA *       CLEAR      9   5  85 S5        30.14R WCI   0
CLARION *      CLEAR     10   9  92 N6        30.14R WCI   1
ESTHERVILLE    CLEAR      7   5  91 W5        30.11R WCI  -2
FORT DODGE *   CLEAR     14  10  85 SW3       30.14R
MASON CITY     CLEAR      4   2  91 CALM      30.14R
FOREST CITY *  CLEAR     12   9  85 CALM      30.13R
IOWA FALLS *     N/A     18  14  86 S6        30.15R WCI   9
$$

IAZ007>011-017>019-026>030-037>042-050>054-066-281600-
   NORTHEAST IOWA

CITY           SKY/WX    TMP DP  RH WIND       PRES   REMARKS
CEDAR RAPIDS   SUNNY     17  16  95 S6        30.18R WCI   9
CHARLES CITY * SUNNY     14  12  92 SW3       30.15R
CLINTON *      SUNNY     18  16  93 SW5       30.23R WCI  11
DECORAH *      SUNNY     16  12  86 CALM      30.12S
DUBUQUE        SUNNY     17  14  88 SW8       30.16R WCI   7
MONTICELLO *   SUNNY     19  16  86 SW5       30.18S WCI  13
OELWEIN *      SUNNY     18  14  86 SW5       30.16R WCI  11
WATERLOO       SUNNY     17  14  88 CALM      30.16R
$$

IAZ064-065-067-068-078-281600-
   EAST CENTRAL IOWA

CITY           SKY/WX    TMP DP  RH WIND       PRES   REMARKS
DAVENPORT      SUNNY     19  14  81 W5        30.21R WCI  12
IOWA CITY      SUNNY     19  16  88 CALM      30.22R
MT. PLEASANT * SUNNY     21  21 100 SW5       30.23R WCI  15
MUSCATINE *    SUNNY     21  18  86 S6        30.23R WCI  14
QUAD CITIES    SUNNY     20  16  84 SW5       30.22R WCI  13
$$

IAZ062-063-075>077-085>089-095>099-281600-
   SOUTHEAST IOWA

CITY           SKY/WX    TMP DP  RH WIND       PRES   REMARKS
BURLINGTON     MOSUNNY   24  20  84 W5        30.22R WCI  18
FAIRFIELD *    SUNNY     21  18  86 SW6       30.22R WCI  14
FORT MADISON * SUNNY     25  21  86 CALM      30.24R
KEOKUK *       SUNNY     25  21  86 SW6       30.23R WCI  18
OSKALOOSA *      N/A     19  18  93 S7        30.21R WCI  10
CENTERVILLE *  SUNNY     19  19 100 S7        30.21S WCI  10
OTTUMWA        SUNNY     20  17  88 SW6       30.20R WCI  12
WASHINGTON *   SUNNY     21  21 100 SW7       30.22R WCI  13
$$

ABBREVIATIONS USED IN REMARKS
   TC - TEMPERATURES IN CELSIUS
  WCI - WIND CHILL INDEX
   HX - HEAT INDEX
  VSB - VISIBILITY
$$



USA.gov is the U.S. government's official web portal to all federal, state and local government web resources and services.